Regional Weather Roundup
Issued by NWS Raleigh/Durham, NC

Home | Current Version | Previous Version | Text Only | Print | Product List | Glossary On
Versions: 1 2 3 4 5 6 7 8 9 10 11 12 13 14 15 16 17 18 19 20 21 22 23 24 25 26 27 28 29 30 31 32 33 34 35 36 37 38 39 40 41 42 43 44 45 46 47 48 49 50
000
ASUS42 KRAH 301710
RWRRAH
NORTH CAROLINA WEATHER ROUNDUP
NATIONAL WEATHER SERVICE RALEIGH NC
1200 PM EST FRI JAN 30 2015

NOTE: "FAIR" INDICATES FEW OR NO CLOUDS BELOW 12,000 FEET WITH NO
SIGNIFICANT WEATHER AND/OR OBSTRUCTIONS TO VISIBILITY.

NCZ001-053-055-056-065-067-301800-
WESTERN NORTH CAROLINA

CITY           SKY/WX    TMP DP  RH WIND       PRES   REMARKS
ASHEVILLE      MOSUNNY   38  20  48 NW28G41   30.18F WCI  26
JEFFERSON      CLOUDY    29  15  55 NW20G28   30.09S WCI  17
MORGANTON      SUNNY     42  18  38 NW15G24   30.23F
HICKORY        SUNNY     42  14  32 N16G30    30.17R
RUTHERFORDTON  MOSUNNY   45  16  30 N14       30.19S
MOUNT AIRY     MOSUNNY   42  14  31 NW14G24   30.15F
BOONE          MOSUNNY   29  15  57 NW30G41   30.09F WCI  13
$$

NCZ021-022-025-041-071-084-088-301800-
CENTRAL NORTH CAROLINA

CITY           SKY/WX    TMP DP  RH WIND       PRES   REMARKS
CHARLOTTE      MOSUNNY   47  16  29 NW17G28   30.18F
GREENSBORO     MOSUNNY   44  15  31 NW23G33   30.12F
WINSTON-SALEM  SUNNY     42  14  32 NW22G35   30.14F
RALEIGH-DURHAM PTSUNNY   45  18  34 NW13G22   30.11S
FORT BRAGG     MOSUNNY   49  20  32 N20G26    30.11S
FAYETTEVILLE   MOSUNNY   49  22  34 NW16G30   30.11S
BURLINGTON     PTSUNNY   47  17  30 NW13G30   30.11F
LAURINBURG     SUNNY     50  22  33 N20G26    30.14S
$$

NCZ011-015-027-028-043-044-047-080-103-301800-
NORTHEASTERN NORTH CAROLINA

CITY           SKY/WX    TMP DP  RH WIND       PRES   REMARKS
ROCKY MT-WILSO MOSUNNY   48  20  32 NW22G31   30.08S
GREENVILLE     PTSUNNY   46  25  42 N12G22    30.07S
WASHINGTON     CLOUDY    46  26  46 NW13G22   30.05R
ELIZABETH CITY CLOUDY    43  30  60 N15G23    30.02R
MANTEO         CLOUDY    39  36  87 N9        30.01S WCI  33
CAPE HATTERAS  CLOUDY    41  36  82 N12G22    29.99F
$$

NCZ078-087-090-091-093-098-101-301800-
SOUTHEASTERN NORTH CAROLINA

CITY           SKY/WX    TMP DP  RH WIND       PRES   REMARKS
LUMBERTON      SUNNY     50  25  37 NW17G31   30.12R
GOLDSBORO      MOSUNNY   48  28  46 NW14G25   30.07R
KINSTON        MOSUNNY   50  23  34 NW15G25   30.07S
KENANSVILLE    PTSUNNY   47  25  42 NW13      30.09S
NEW BERN       CLOUDY    51  28  41 NW12G24   30.04S
CHERRY POINT   PTSUNNY   51  28  41 NW26G33   30.03S
BEAUFORT       MOSUNNY   51  34  52 N21G30    30.01S
JACKSONVILLE   PTSUNNY   51  27  39 NW28G36   30.05S
WILMINGTON     MOSUNNY   52  30  43 NW21G26   30.06S
$$



USA.gov is the U.S. government's official web portal to all federal, state and local government web resources and services.